Odessa, TX

2:03 PM CST on February 06, 2016 (GMT -0600)
Odessa-Schlemeyer

Weather History for KODO - September, 2013

Change the Weather History Date:

Friday, September 27, 2013

  Actual Average (KMAF) Record (KMAF)
Temperature  
Mean Temperature 80 °F 71 °F  
Max Temperature 91 °F 84 °F 102 °F (1977)
Min Temperature 69 °F 58 °F 42 °F (1989)
Degree Days  
Heating Degree Days 0 1  
Month to date heating degree days 7  
Since 1 July heating degree days 7  
Cooling Degree Days 14 7  
Month to date cooling degree days 277  
Year to date cooling degree days 2161  
Growing Degree Days 30 (Base 50)    
Moisture  
Dew Point 63 °F    
Average Humidity 62    
Maximum Humidity 83    
Minimum Humidity 37    
Precipitation  
Precipitation 0.04 in 0.05 in 1.23 in (1980)
Month to date precipitation 1.69  
Year to date precipitation 11.41  
Sea Level Pressure  
Sea Level Pressure 29.74 in    
Wind  
Wind Speed 13 mph (SSE)    
Max Wind Speed 21 mph    
Max Gust Speed 29 mph    
Visibility 10 miles    
Events Rain , Thunderstorm    
T = Trace of Precipitation, MM = Missing Value Source: NWS Daily Summary

Daily Weather History Graph

Daily Weather History Graph

Search for Another Location

Airport or City:

Trip Planner

Search our weather history database for the weather conditions in past years. The results will help you decide how hot, cold, wet, or windy it might be!

Date:

Astronomy

Sep. 27, 2013 Rise Set
Actual Time 7:41 AM CDT 7:39 PM CDT
Civil Twilight 7:16 AM CDT 8:03 PM CDT
Nautical Twilight 6:48 AM CDT 8:31 PM CDT
Astronomical Twilight 6:19 AM CDT 9:00 PM CDT
Moon 12:58 AM CDT (9/27) 3:00 PM CDT (9/27)
Length of Visible Light 12h 46m
Length of Day
11h 58m
Last Quarter, 45% of the Moon is Illuminated
Sep 27
Last Quarter
Oct 4
New
Oct 11
First Quarter
Oct 18
Full
Oct 26
Last Quarter

Hourly Weather History & Observations

Time (CDT) Temp. Heat Index Dew Point Humidity Pressure Visibility Wind Dir Wind Speed Gust Speed Precip Events Conditions
12:53 AM 73.9 °F - 55.9 °F 53% 29.72 in 10.0 mi SSE 12.7 mph - N/A   Clear
1:53 AM 73.0 °F - 55.9 °F 55% 29.72 in 10.0 mi SSE 10.4 mph - N/A   Clear
2:53 AM 72.0 °F - 55.9 °F 57% 29.70 in 10.0 mi SSE 11.5 mph - N/A   Clear
3:53 AM 71.1 °F - 57.0 °F 61% 29.70 in 10.0 mi SSE 10.4 mph - N/A   Clear
4:53 AM 71.1 °F - 59.0 °F 66% 29.69 in 10.0 mi SSE 10.4 mph - N/A   Clear
5:53 AM 71.1 °F - 61.0 °F 70% 29.70 in 10.0 mi SSE 12.7 mph - N/A   Clear
6:53 AM 70.0 °F - 62.1 °F 76% 29.72 in 10.0 mi SSE 13.8 mph - N/A   Clear
7:53 AM 69.1 °F - 63.0 °F 81% 29.74 in 10.0 mi SSE 11.5 mph - N/A   Clear
8:53 AM 71.1 °F - 64.0 °F 78% 29.75 in 10.0 mi SSE 15.0 mph - N/A   Clear
9:53 AM 73.9 °F - 64.9 °F 73% 29.76 in 10.0 mi South 18.4 mph - N/A   Clear
10:53 AM 79.0 °F - 64.9 °F 62% 29.76 in 10.0 mi SSE 18.4 mph - N/A   Clear
11:53 AM 82.9 °F 84.4 °F 64.0 °F 53% 29.74 in 10.0 mi South 18.4 mph 28.8 mph N/A   Clear
12:53 PM 86.0 °F 86.8 °F 63.0 °F 46% 29.73 in 10.0 mi South 15.0 mph 25.3 mph N/A   Clear
1:53 PM 88.0 °F 88.4 °F 62.1 °F 42% 29.70 in 10.0 mi South 16.1 mph 24.2 mph N/A   Clear
2:53 PM 89.1 °F 88.8 °F 60.1 °F 38% 29.68 in 10.0 mi South 16.1 mph 24.2 mph N/A   Clear
3:53 PM 90.0 °F 89.7 °F 60.1 °F 37% 29.65 in 10.0 mi South 19.6 mph 27.6 mph N/A   Clear
4:53 PM 90.0 °F 90.0 °F 61.0 °F 38% 29.64 in 10.0 mi South 17.3 mph 27.6 mph N/A   Clear
5:53 PM 86.0 °F 87.3 °F 64.0 °F 48% 29.64 in 10.0 mi SSE 20.7 mph 28.8 mph N/A   Clear
6:53 PM 82.9 °F 84.6 °F 64.9 °F 54% 29.70 in 10.0 mi South 16.1 mph 24.2 mph N/A   Mostly Cloudy
7:53 PM 81.0 °F 82.7 °F 64.9 °F 58% 29.70 in 10.0 mi SSE 18.4 mph 25.3 mph N/A   Partly Cloudy
8:53 PM 80.1 °F 81.9 °F 64.9 °F 60% 29.71 in 10.0 mi South 17.3 mph 23.0 mph N/A   Scattered Clouds
9:53 PM 78.1 °F - 66.9 °F 68% 29.75 in 8.0 mi South 16.1 mph - 0.00 in Rain , Thunderstorm Light Rain
10:20 PM 73.4 °F - 68.0 °F 83% 29.89 in 4.0 mi SSW 4.6 mph - 0.04 in Rain , Thunderstorm Rain
10:41 PM 75.2 °F - 69.8 °F 83% 29.89 in 10.0 mi SSE 10.4 mph - 0.04 in   Mostly Cloudy
10:53 PM 75.9 °F - 68.0 °F 76% 29.76 in 10.0 mi South 6.9 mph - 0.04 in   Mostly Cloudy
11:17 PM 75.2 °F - 68.0 °F 78% 29.88 in 10.0 mi SE 10.4 mph - N/A Thunderstorm Mostly Cloudy
11:36 PM 75.2 °F - 66.2 °F 73% 29.88 in 10.0 mi SSE 12.7 mph - N/A   Mostly Cloudy
11:53 PM 75.9 °F - 66.9 °F 74% 29.73 in 10.0 mi SSE 11.5 mph - N/A   Mostly Cloudy